Location: ???????
(55.2903°N, 39.1554°E)
Time: 15:32:08
(UTC+00:00)

Cosmos 2112 Rocket - Pass Details

Date: 14 April 2024
Orbit: 753 x 784 km, 74.0° (Epoch: 24 April)

Event Time Altitude Azimuth Distance (km) Brightness Sun altitude
Exits shadow 00:14:26 - 163° (SSE) 3,080 6.8 -16.1°
Reaches altitude 10° 00:16:39 10° 153° (SSE) 2,340 6.3 -15.9°
Drops below altitude 10° 00:25:12 10° 46° (NE) 2,360 8.0 -15.0°
Enters shadow 01:23:18 -68° 208° (SSW) 12,615 10.1 -8.4°
Maximum altitude 02:02:34 71° 301° (WNW) 836 4.1 -3.3°
